Location: Newark
(54.2500°N, 9.1833°E)
Time: 10:38:11
(UTC+00:00)

Explorer 7 - All Passes

Search period start: 16 December 2019 00:00
Search period end: 26 December 2019 00:00
Orbit: 485 x 679 km, 50.3° (Epoch: 15 December)

Date Brightness Start Highest point End Pass type
(mag) Time Alt. Az. Time Alt. Az. Time Alt. Az.
16 Dec - 12:05:49 10° SE 12:06:23 10° SE 12:06:58 10° SE daylight
16 Dec - 13:41:41 10° SSW 13:45:52 31° SSE 13:50:09 10° E daylight
16 Dec - 15:21:15 10° WSW 15:25:58 53° S 15:30:47 10° E daylight
16 Dec - 17:01:34 10° W 17:06:17 47° SSW 17:10:59 10° ESE visible
16 Dec - 18:42:23 10° W 18:46:16 24° SSW 18:50:05 10° SSE visible
17 Dec - 12:08:21 10° S 12:10:56 15° SE 12:13:36 10° ESE daylight
17 Dec - 13:46:13 10° SW 13:50:37 37° SSE 13:55:09 10° E daylight
17 Dec - 15:26:05 10° WSW 15:30:50 55° S 15:35:40 10° ESE daylight
17 Dec - 17:06:30 10° W 17:11:07 41° SSW 17:15:42 10° SE visible
17 Dec - 18:47:39 10° W 18:50:55 18° SW 18:54:09 10° S visible
18 Dec - 12:12:10 10° S 12:15:33 20° SE 12:19:03 10° E daylight
18 Dec - 13:50:53 10° SW 13:55:25 44° SSE 14:00:05 10° E daylight
18 Dec - 15:30:57 10° W 15:35:42 54° S 15:40:31 10° ESE daylight
18 Dec - 17:11:28 10° W 17:15:54 34° SSW 17:20:19 10° SE visible
18 Dec - 18:53:18 10° WSW 18:55:31 13° SW 18:57:43 10° SSW visible
19 Dec - 12:16:22 10° SSW 12:20:14 26° SSE 12:24:14 10° E daylight
19 Dec - 13:55:38 10° WSW 14:00:15 50° S 14:05:00 10° E daylight
19 Dec - 15:35:51 10° W 15:40:33 51° S 15:45:20 10° ESE visible
19 Dec - 17:16:29 10° W 17:20:38 28° SSW 17:24:47 10° SSE visible
20 Dec - 10:44:06 10° SSE 10:45:28 11° SE 10:46:50 10° ESE daylight
20 Dec - 12:20:48 10° SW 12:24:58 32° SSE 12:29:17 10° E daylight
20 Dec - 14:00:26 10° WSW 14:05:06 53° S 14:09:54 10° E daylight
20 Dec - 15:40:45 10° W 15:45:24 46° SSW 15:50:06 10° ESE visible
20 Dec - 17:21:37 10° W 17:25:20 22° SW 17:29:03 10° SSE visible
21 Dec - 10:47:16 10° S 10:50:01 16° SE 10:52:52 10° ESE daylight
21 Dec - 12:25:23 10° SW 12:29:44 39° SSE 12:34:15 10° E daylight
21 Dec - 14:05:17 10° WSW 14:09:58 55° S 14:14:46 10° ESE daylight
21 Dec - 15:45:41 10° W 15:50:13 39° SSW 15:54:47 10° SE visible
21 Dec - 17:26:57 10° WSW 17:29:58 16° SW 17:33:00 10° S visible
22 Dec - 10:51:13 10° SSW 10:54:40 21° SE 10:58:14 10° E daylight
22 Dec - 12:30:04 10° WSW 12:34:32 45° SSE 12:39:12 10° E daylight
22 Dec - 14:10:10 10° W 14:14:50 53° S 14:19:37 10° ESE daylight
22 Dec - 15:50:40 10° W 15:54:59 32° SSW 15:59:21 10° SE visible
22 Dec - 17:32:53 10° WSW 17:34:34 12° SW 17:36:15 10° SSW visible
23 Dec - 10:55:30 10° SSW 10:59:21 27° SSE 11:03:22 10° E daylight
23 Dec - 12:34:51 10° WSW 12:39:23 51° S 12:44:06 10° E daylight
23 Dec - 14:15:03 10° W 14:19:41 49° S 14:24:25 10° ESE daylight
23 Dec - 15:55:43 10° W 15:59:43 26° SSW 16:03:46 10° SSE visible
24 Dec - 09:22:49 10° SSE 09:24:32 12° SE 09:26:18 10° ESE daylight
24 Dec - 10:59:58 10° SW 11:04:04 34° SSE 11:08:23 10° E daylight
24 Dec - 12:39:40 10° WSW 12:44:14 54° S 12:48:59 10° E daylight
24 Dec - 14:19:58 10° W 14:24:31 43° SSW 14:29:10 10° SE daylight
24 Dec - 16:00:54 10° W 16:04:24 20° SW 16:07:56 10° S visible
25 Dec - 09:26:16 10° S 09:29:07 17° SE 09:32:04 10° ESE daylight
25 Dec - 11:04:35 10° SW 11:08:51 40° SSE 11:13:21 10° E daylight
25 Dec - 12:44:31 10° WSW 12:49:06 54° S 12:53:51 10° ESE daylight
25 Dec - 14:24:55 10° W 14:29:19 37° SSW 14:33:48 10° SE daylight
25 Dec - 16:06:21 10° WSW 16:09:02 15° SW 16:11:44 10° S visible
